Orangeburg, SC

4:30 AM EDT on October 22, 2017 (GMT -0400)
Orangeburg Municipal

Weather History for KOGB - October, 2014

Change the Weather History Date:

Wednesday, October 8, 2014

  Actual Average Record
Temperature  
Mean Temperature 76 °F 68 °F  
Max Temperature 89 °F 79 °F 89 °F (1962)
Min Temperature 62 °F 57 °F 37 °F (1980)
Degree Days  
Heating Degree Days 0 1  
Month to date heating degree days 14 8  
Since 1 July heating degree days 18 12  
Cooling Degree Days 11 4  
Month to date cooling degree days 40 41  
Year to date cooling degree days 2162 2035  
Growing Degree Days 26 (Base 50)    
Moisture  
Dew Point 63 °F    
Average Humidity 71    
Maximum Humidity 93    
Minimum Humidity 34    
Precipitation  
Precipitation 0.00 in 0.15 in 5.16 in (2016)
Month to date precipitation 0.30 1.17  
Year to date precipitation 39.18 38.27  
Sea Level Pressure  
Sea Level Pressure 30.05 in    
Wind  
Wind Speed 5 mph (WSW)    
Max Wind Speed 15 mph    
Max Gust Speed 22 mph    
Visibility 10 miles    
Events      
T = Trace of Precipitation, MM = Missing Value Source: NWS Daily Summary

Daily Weather History Graph

Daily Weather History Graph

Search for Another Location

Airport or City:

Trip Planner

Search our weather history database for the weather conditions in past years. The results will help you decide how hot, cold, wet, or windy it might be!

Date:

Astronomy

Oct. 08, 2014 Rise Set
Actual Time 7:22 AM EDT 6:58 PM EDT
Civil Twilight 6:57 AM EDT 7:23 PM EDT
Nautical Twilight 6:29 AM EDT 7:52 PM EDT
Astronomical Twilight 6:00 AM EDT 8:20 PM EDT
Moon 7:14 PM EDT (10/8) 7:26 AM EDT (10/8)
Length of Visible Light 12h 25m
Length of Day
11h 35m
Full, 100% of the Moon is Illuminated
Oct 8
Full
Oct 15
Last Quarter
Oct 23
New
Oct 30
First Quarter
Nov 6
Full

Hourly Weather History & Observations

Time (EDT) Temp. Heat Index Dew Point Humidity Pressure Visibility Wind Dir Wind Speed Gust Speed Precip Events Conditions
12:53 AM 66.0 °F - 63.0 °F 90% 30.07 in 10.0 mi South 3.5 mph - N/A   Clear
1:53 AM 66.0 °F - 63.0 °F 90% 30.06 in 10.0 mi SSW 4.6 mph - N/A   Clear
2:53 AM 64.9 °F - 62.1 °F 90% 30.06 in 10.0 mi SSW 5.8 mph - N/A   Clear
3:53 AM 64.0 °F - 62.1 °F 93% 30.05 in 9.0 mi South 4.6 mph - N/A   Clear
4:53 AM 64.0 °F - 62.1 °F 93% 30.05 in 8.0 mi SSW 3.5 mph - N/A   Clear
5:53 AM 64.0 °F - 61.0 °F 90% 30.06 in 8.0 mi SSW 4.6 mph - N/A   Clear
6:53 AM 62.1 °F - 60.1 °F 93% 30.08 in 5.0 mi SW 3.5 mph - N/A   Clear
7:53 AM 64.0 °F - 61.0 °F 90% 30.09 in 8.0 mi South 4.6 mph - N/A   Clear
8:53 AM 68.0 °F - 64.0 °F 87% 30.10 in 10.0 mi SW 4.6 mph - N/A   Clear
9:53 AM 73.9 °F - 64.9 °F 73% 30.11 in 10.0 mi West 10.4 mph - N/A   Clear
10:53 AM 80.1 °F 82.1 °F 66.0 °F 62% 30.10 in 10.0 mi West 6.9 mph - N/A   Clear
11:53 AM 82.0 °F 83.8 °F 64.9 °F 56% 30.08 in 10.0 mi West 10.4 mph - N/A   Clear
12:53 PM 86.0 °F 86.8 °F 63.0 °F 46% 30.06 in 10.0 mi West 10.4 mph - N/A   Clear
1:53 PM 87.1 °F 87.8 °F 63.0 °F 44% 30.04 in 10.0 mi WSW 10.4 mph - N/A   Clear
2:53 PM 88.0 °F 88.4 °F 62.1 °F 42% 30.02 in 10.0 mi West 6.9 mph - N/A   Clear
3:53 PM 89.1 °F 88.0 °F 57.9 °F 35% 30.01 in 10.0 mi West 9.2 mph - N/A   Clear
4:53 PM 89.1 °F 88.8 °F 60.1 °F 38% 30.00 in 10.0 mi West 8.1 mph - N/A   Clear
5:53 PM 87.1 °F 86.5 °F 59.0 °F 39% 30.00 in 10.0 mi West 6.9 mph - N/A   Clear
6:53 PM 81.0 °F 81.9 °F 62.1 °F 52% 30.01 in 10.0 mi West 3.5 mph - N/A   Clear
7:53 PM 73.9 °F - 63.0 °F 68% 30.02 in 10.0 mi Calm Calm - N/A   Clear
8:53 PM 71.1 °F - 64.9 °F 81% 30.04 in 10.0 mi Calm Calm - N/A   Clear
9:53 PM 70.0 °F - 64.0 °F 81% 30.05 in 10.0 mi Calm Calm - N/A   Clear
10:53 PM 70.0 °F - 64.9 °F 84% 30.06 in 10.0 mi Calm Calm - N/A   Clear
11:53 PM 69.1 °F - 64.0 °F 84% 30.06 in 10.0 mi Calm Calm - N/A   Clear